Location: Newark
(31.5350°N, 35.0986°E)
Time: 05:28:17
(UTC+00:00)

Vanguard 2 Rocket - All Passes

Search period start: 15 September 2019 00:00
Search period end: 25 September 2019 00:00
Orbit: 554 x 3327 km, 32.9° (Epoch: 13 September)

Date Brightness Start Highest point End Pass type
(mag) Time Alt. Az. Time Alt. Az. Time Alt. Az.
15 Sep - 00:18:14 10° W 00:24:48 32° SSW 00:35:21 10° SSE visible
15 Sep - 02:37:20 10° SW 02:40:37 11° SSW 02:44:18 10° SSW visible
15 Sep - 16:41:18 10° SW 16:45:31 35° SSE 16:49:08 10° E visible
15 Sep - 18:54:11 10° W 18:58:05 78° N 19:02:45 10° E visible
15 Sep - 21:06:34 10° W 21:11:05 86° SSW 21:18:16 10° ESE night (unlit)
15 Sep - 23:18:55 10° W 23:24:42 40° SSW 23:34:20 10° SE visible
16 Sep - 01:34:29 10° WSW 01:39:47 16° SSW 01:46:37 10° S visible
16 Sep - 15:41:56 10° SSW 15:46:17 24° SSE 15:49:42 10° E daylight
16 Sep - 17:54:49 10° WSW 17:58:55 85° SSE 18:03:00 10° E visible
16 Sep - 20:07:40 10° W 20:11:44 80° N 20:17:28 10° E night (unlit)
16 Sep - 22:19:52 10° W 22:24:55 49° SSW 22:33:19 10° SE night (unlit)
17 Sep - 00:33:47 10° WSW 00:39:18 20° SSW 00:47:05 10° SSE visible
17 Sep - 14:42:39 10° SSW 14:46:49 18° SSE 14:50:05 10° ESE daylight
17 Sep - 16:55:10 10° WSW 16:59:47 61° SSE 17:03:38 10° E visible
17 Sep - 19:08:34 10° W 19:12:29 73° N 19:17:09 10° E visible
17 Sep - 21:20:57 10° W 21:25:24 63° SSW 21:32:25 10° ESE night (unlit)
17 Sep - 23:33:57 10° WSW 23:39:09 25° SSW 23:46:56 10° SSE visible
18 Sep - 13:43:42 10° S 13:47:07 13° SSE 13:49:56 10° SE daylight
18 Sep - 15:55:18 10° SW 16:00:35 43° SSE 16:04:28 10° E visible
18 Sep - 18:09:10 10° W 18:13:16 76° N 18:17:21 10° E visible
18 Sep - 20:22:01 10° W 20:26:05 81° SSW 20:31:48 10° ESE night (unlit)
18 Sep - 22:34:34 10° W 22:39:18 31° SSW 22:46:33 10° SE night (unlit)
19 Sep - 00:52:19 10° SW 00:53:55 10° SSW 00:55:38 10° SSW visible
19 Sep - 14:55:16 10° SW 15:01:13 32° SSE 15:05:19 10° E daylight
19 Sep - 17:09:23 10° WSW 17:14:05 89° S 17:18:00 10° E visible
19 Sep - 19:22:56 10° W 19:26:52 81° N 19:31:33 10° E night (unlit)
19 Sep - 21:35:27 10° W 21:39:43 40° SSW 21:46:09 10° SE night (unlit)
19 Sep - 23:50:10 10° SW 23:53:40 14° SSW 23:58:04 10° S visible
20 Sep - 13:55:11 10° SSW 14:01:36 25° SSE 14:06:01 10° ESE daylight
20 Sep - 16:09:13 10° WSW 16:14:52 69° SSE 16:18:55 10° E visible
20 Sep - 18:23:34 10° W 18:27:40 72° N 18:31:45 10° E visible
20 Sep - 20:36:24 10° W 20:40:23 54° SSW 20:45:54 10° ESE night (unlit)
20 Sep - 22:49:56 10° WSW 22:53:45 18° SSW 22:58:51 10° SSE night (unlit)
21 Sep - 12:55:13 10° SSW 13:01:43 20° SSE 13:06:22 10° ESE daylight
21 Sep - 15:08:45 10° SW 15:15:33 52° SSE 15:19:57 10° E daylight
21 Sep - 17:23:46 10° W 17:28:27 75° N 17:32:21 10° E visible
21 Sep - 19:37:17 10° W 19:41:11 75° SSW 19:45:51 10° ESE night (unlit)
21 Sep - 21:50:20 10° WSW 21:54:05 24° SSW 21:59:14 10° SSE night (unlit)
22 Sep - 11:55:42 10° S 12:01:32 15° SSE 12:06:02 10° ESE daylight
22 Sep - 14:08:03 10° SW 14:16:01 40° SSE 14:20:57 10° E daylight
22 Sep - 16:23:28 10° W 16:29:12 87° NNW 16:33:16 10° E visible
22 Sep - 18:37:56 10° W 18:42:02 84° N 18:46:08 10° E visible
22 Sep - 20:51:00 10° W 20:54:41 32° SSW 20:59:33 10° SE night (unlit)
23 Sep - 10:57:36 10° SSE 11:01:00 11° SSE 11:04:00 10° SE daylight
23 Sep - 13:07:18 10° SW 13:16:12 32° SSE 13:21:47 10° E daylight
23 Sep - 15:22:43 10° WSW 15:29:52 76° SSE 15:34:22 10° E daylight
23 Sep - 17:38:09 10° W 17:42:50 74° N 17:46:44 10° E visible
23 Sep - 19:51:42 10° W 19:55:28 46° SSW 19:59:55 10° SE night (unlit)
23 Sep - 22:06:26 10° SW 22:08:30 12° SSW 22:10:51 10° S night (unlit)
24 Sep - 12:06:38 10° SSW 12:16:04 26° SSE 12:22:17 10° ESE daylight
24 Sep - 14:21:37 10° WSW 14:30:21 60° SSE 14:35:29 10° E daylight
24 Sep - 16:37:51 10° W 16:43:34 76° N 16:47:37 10° E visible
24 Sep - 18:52:17 10° W 18:56:21 69° SSW 19:00:25 10° ESE visible
24 Sep - 21:06:08 10° WSW 21:08:59 17° SSW 21:12:23 10° SSE night (unlit)
